Weather History for Malmstrom AFB, MT

Change the Weather History Date:

Tuesday, May 13, 2014

  Actual Average (KGTF) Record (KGTF)
Temperature  
Mean Temperature 50 °F 51 °F  
Max Temperature 64 °F 64 °F 89 °F (1931)
Min Temperature 37 °F 38 °F 20 °F (2004)
Degree Days  
Heating Degree Days 14 14  
Month to date heating degree days 207  
Since 1 July heating degree days 7324  
Cooling Degree Days 0 0  
Month to date cooling degree days 0  
Year to date cooling degree days 1  
Moisture  
Dew Point 25 °F    
Average Humidity 37    
Maximum Humidity 65    
Minimum Humidity 23    
Precipitation  
Precipitation 0.00 in 0.07 in 0.71 in (1962)
Month to date precipitation 0.75  
Year to date precipitation 4.06  
Snow  
Snow 0.00 in 0.10 in 1.30 in (2009)
Month to date snowfall 1.7  
Since 1 July snowfall 62.2  
Snow Depth -    
Sea Level Pressure  
Sea Level Pressure 30.46 in    
Wind  
Wind Speed 8 mph (West)    
Max Wind Speed 14 mph    
Max Gust Speed 21 mph    
Visibility 10 miles    
Events      
T = Trace of Precipitation, MM = Missing Value Source: NWS Daily Summary

Daily Weather History Graph

Daily Weather History Graph

Search for Another Location

Airport:

Trip Planner

Search our weather history database for the weather conditions in past years. The results will help you decide how hot, cold, wet, or windy it might be!

Date:

Astronomy

May. 13, 2014 Rise Set
Actual Time 5:50 AM MDT 8:52 PM MDT
Civil Twilight 5:13 AM MDT 9:29 PM MDT
Nautical Twilight 4:27 AM MDT 10:16 PM MDT
Astronomical Twilight 3:30 AM MDT 11:14 PM MDT
Moon 7:53 PM MDT (5/13) 5:16 AM MDT (5/13)
Length of Visible Light 16h 15m
Length of Day
15h 02m
Waxing Gibbous, 99% of the Moon is Illuminated
May 13
Waxing Gibbous
May 14
Full
May 21
Last Quarter
May 28
New
Jun 5
First Quarter

Hourly Weather History & Observations

Time (MDT) Temp. Windchill Dew Point Humidity Pressure Visibility Wind Dir Wind Speed Gust Speed Precip Events Conditions
12:56 AM 41.0 °F 34.7 °F 25.0 °F 53% 30.47 in 10.0 mi SSW 10.4 mph - N/A   Clear
1:56 AM 44.1 °F 38.6 °F 23.0 °F 43% 30.46 in 10.0 mi SW 10.4 mph - N/A   Clear
2:56 AM 41.0 °F 34.3 °F 25.0 °F 53% 30.48 in 10.0 mi SW 11.5 mph - N/A   Clear
3:56 AM 39.0 °F 32.3 °F 25.0 °F 57% 30.48 in 10.0 mi SW 10.4 mph - N/A   Clear
4:56 AM 41.0 °F 36.4 °F 24.1 °F 51% 30.48 in 10.0 mi SW 6.9 mph - N/A   Clear
5:56 AM 37.0 °F 34.5 °F 26.1 °F 65% 30.50 in 10.0 mi ENE 3.5 mph - N/A   Overcast
7:56 AM 46.0 °F 42.5 °F 26.1 °F 46% 30.51 in 10.0 mi SW 6.9 mph - N/A   Mostly Cloudy
8:56 AM 48.9 °F - 25.0 °F 39% 30.53 in 10.0 mi SW 6.9 mph - N/A   Scattered Clouds
10:56 AM 55.9 °F - 25.0 °F 30% 30.52 in 10.0 mi Variable 3.5 mph - N/A   Clear
11:56 AM 57.0 °F - 23.0 °F 27% 30.51 in 10.0 mi Calm Calm - N/A   Clear
12:56 PM 60.1 °F - 21.9 °F 23% 30.50 in 10.0 mi WNW 8.1 mph - N/A   Clear
1:56 PM 62.1 °F - 24.1 °F 23% 30.48 in 10.0 mi Variable 4.6 mph - N/A   Mostly Cloudy
2:56 PM 61.0 °F - 23.0 °F 23% 30.46 in 10.0 mi Calm Calm - N/A   Mostly Cloudy
3:56 PM 61.0 °F - 23.0 °F 23% 30.45 in 10.0 mi WSW 4.6 mph - N/A   Overcast
4:56 PM 64.9 °F - 26.1 °F 23% 30.43 in 10.0 mi North 6.9 mph - N/A   Overcast
5:56 PM 62.1 °F - 25.0 °F 24% 30.43 in 10.0 mi North 13.8 mph 20.7 mph N/A   Mostly Cloudy
6:56 PM 62.1 °F - 25.0 °F 24% 30.42 in 10.0 mi West 9.2 mph - N/A   Clear
7:56 PM 61.0 °F - 26.1 °F 26% 30.41 in 10.0 mi NNW 4.6 mph - N/A   Clear
8:56 PM 57.0 °F - 26.1 °F 30% 30.42 in 10.0 mi NW 6.9 mph - N/A   Clear
9:56 PM 55.9 °F - 25.0 °F 30% 30.41 in 10.0 mi WNW 9.2 mph - N/A   Clear
10:56 PM 52.0 °F - 28.0 °F 40% 30.42 in 10.0 mi WNW 6.9 mph - N/A   Clear
11:56 PM 44.1 °F 40.8 °F 30.0 °F 58% 30.43 in 10.0 mi ESE 5.8 mph - N/A   Clear